{"data":{"norad_id":48428,"intl_designator":"2021-040A","name":"STARLINK-2461","alt_names":[],"object_type":"PAYLOAD","status":"ACTIVE","operator":null,"country":"US","launch_date":"2021-05-09","launch_site_code":"AFETR","launch_vehicle":null,"mission":null,"orbit_class":"UNKNOWN","rcs_meters":null,"size_class":null,"mass_kg":null,"dimensions":null,"purposes":["comms"],"wikipedia_slug":null,"has_3d_model":false,"image_url":null,"decayed_at":null,"tle_current":{"epoch":"2026-05-24T20:00:05.394528Z","epoch_age_seconds":85332,"freshness":"FRESH","line1":"1 48428U 21040A   26144.83339577  .00002200  00000+0  82578-4 0  9992","line2":"2 48428  53.1582 184.5864 0001239  73.9352 286.1785 15.31721615278345","mean_motion":15.31721615,"eccentricity":0.0001239,"inclination_deg":53.1582,"raan_deg":184.5864,"arg_perigee_deg":73.9352,"mean_anomaly_deg":286.1785,"bstar":8.2578e-5,"rev_number":27834,"period_min":94.011861287209,"perigee_km":469.82699491658,"apogee_km":471.52413066964,"semimajor_km":6848.8125627931,"source":"CELESTRAK","updated_at":"2026-05-25T13:38:16.713784Z"}}}